ITY4226 LIRF-GOBD

Flight info

Callsign ITY4226
Flight time N/A
Altitude 19000
Route ESINO Z924 ABIDU/N0456F350 DCT ADRUX DCT KOLUS DCT GOKMI DCT SUPUX DCT ETOIL DCT REQIN UG26 ZEM/N0461F340 UG26 ALR/N0456F360 UG26 CHE UA411 FES/N0461F350 UM372 SODSA/N0455F370 UM372 DIDOV DCT ECHED/N0461F360 UR975 BIMOG/N0454F380 UR975 ZRT DCT MINBA DCT SEPEL UR975 SAKLI SAKLI1G
Aircraft A319/M-SDE3FGHIRWY/LB1

Departure

Time N/A
Airport Rome–Fiumicino Leonardo da Vinci International Airport (LIRF)

Arrival

Time 2026-05-04 12:56
Airport Blaise Diagne International Airport (GOBD)
Time Latitude Longitude Altitude Speed Heading
2026-05-04 12:00 19.66449 -14.02477 37934 ft 401 kts 217°
2026-05-04 12:00 19.61646 -14.05500 37936 ft 402 kts 216°
2026-05-04 12:01 19.56804 -14.08461 37905 ft 402 kts 216°
2026-05-04 12:02 19.39813 -14.18698 37928 ft 402 kts 216°
2026-05-04 12:03 19.34946 -14.21632 37924 ft 402 kts 216°
2026-05-04 12:03 19.30086 -14.24563 37925 ft 402 kts 215°
2026-05-04 12:04 19.25222 -14.27497 37925 ft 402 kts 216°
2026-05-04 12:04 19.20361 -14.30431 37906 ft 402 kts 215°
2026-05-04 12:05 19.15499 -14.33357 37909 ft 402 kts 215°
2026-05-04 12:05 19.10641 -14.36284 37913 ft 402 kts 215°
2026-05-04 12:06 19.05812 -14.39192 37914 ft 402 kts 215°
2026-05-04 12:06 19.00944 -14.42113 37916 ft 402 kts 215°
2026-05-04 12:07 18.96077 -14.45032 37916 ft 402 kts 215°
2026-05-04 12:07 18.91212 -14.47958 37917 ft 402 kts 215°
2026-05-04 12:08 18.86343 -14.50877 37902 ft 402 kts 215°
2026-05-04 12:08 18.81472 -14.53792 37913 ft 403 kts 215°
2026-05-04 12:09 18.76600 -14.56711 37914 ft 403 kts 215°
2026-05-04 12:09 18.71725 -14.59625 37921 ft 403 kts 215°
2026-05-04 12:10 18.66847 -14.62543 37922 ft 403 kts 215°
2026-05-04 12:10 18.61971 -14.65454 37924 ft 403 kts 215°
2026-05-04 12:11 18.57089 -14.68360 37919 ft 403 kts 215°
2026-05-04 12:11 18.52214 -14.71266 37901 ft 403 kts 215°
2026-05-04 12:12 18.47340 -14.74184 37907 ft 403 kts 215°
2026-05-04 12:12 18.42456 -14.77100 37913 ft 403 kts 215°
2026-05-04 12:14 18.23745 -14.88227 37923 ft 404 kts 215°
2026-05-04 12:15 18.18855 -14.91142 37923 ft 404 kts 215°
2026-05-04 12:15 18.13960 -14.94043 37922 ft 404 kts 214°
2026-05-04 12:16 18.09050 -14.96954 37920 ft 405 kts 214°
2026-05-04 12:16 18.04146 -14.99862 37923 ft 404 kts 214°
2026-05-04 12:17 17.99245 -15.02767 37922 ft 405 kts 214°
2026-05-04 12:17 17.94340 -15.05672 37925 ft 405 kts 214°
2026-05-04 12:18 17.89437 -15.08576 37928 ft 405 kts 214°
2026-05-04 12:18 17.84562 -15.11456 37927 ft 405 kts 214°
2026-05-04 12:19 17.79947 -15.14751 37912 ft 401 kts 220°
2026-05-04 12:19 17.75426 -15.18176 37920 ft 401 kts 220°
2026-05-04 12:20 17.70899 -15.21598 37924 ft 401 kts 220°
2026-05-04 12:20 17.66370 -15.25015 37930 ft 401 kts 220°
2026-05-04 12:21 17.61842 -15.28430 37930 ft 401 kts 220°
2026-05-04 12:21 17.57313 -15.31847 37931 ft 401 kts 220°
2026-05-04 12:22 17.52786 -15.35263 37932 ft 401 kts 220°
2026-05-04 12:22 17.48289 -15.38661 37938 ft 401 kts 220°
2026-05-04 12:23 17.43758 -15.42077 37937 ft 401 kts 220°
2026-05-04 12:23 17.39228 -15.45488 37936 ft 401 kts 220°
2026-05-04 12:24 17.34721 -15.48882 37934 ft 401 kts 220°
2026-05-04 12:24 17.30156 -15.52311 37635 ft 409 kts 219°
2026-05-04 12:25 17.25545 -15.55768 37902 ft 404 kts 220°
2026-05-04 12:25 17.21003 -15.59176 37920 ft 400 kts 220°
2026-05-04 12:26 17.16512 -15.62552 37920 ft 400 kts 220°
2026-05-04 12:26 17.11998 -15.65947 37900 ft 399 kts 220°
2026-05-04 12:27 17.07483 -15.69331 37926 ft 399 kts 220°
2026-05-04 12:27 17.02971 -15.72714 37930 ft 399 kts 220°
2026-05-04 12:28 16.98455 -15.76106 37931 ft 400 kts 220°
2026-05-04 12:28 16.93931 -15.79499 37941 ft 400 kts 220°
2026-05-04 12:29 16.89407 -15.82888 37944 ft 400 kts 220°
2026-05-04 12:29 16.84874 -15.86278 37948 ft 400 kts 220°
2026-05-04 12:30 16.80343 -15.89663 37945 ft 400 kts 220°
2026-05-04 12:30 16.75812 -15.93042 37938 ft 400 kts 220°
2026-05-04 12:31 16.71276 -15.96427 37945 ft 401 kts 220°
2026-05-04 12:31 16.66771 -15.99787 37950 ft 401 kts 220°
2026-05-04 12:32 16.59966 -16.04853 37950 ft 401 kts 220°
2026-05-04 12:33 16.55431 -16.08228 37956 ft 401 kts 220°
2026-05-04 12:33 16.50895 -16.11614 37956 ft 401 kts 220°
2026-05-04 12:34 16.46356 -16.14994 37956 ft 401 kts 220°
2026-05-04 12:34 16.41850 -16.18339 37956 ft 401 kts 220°
2026-05-04 12:35 16.37309 -16.21707 37951 ft 401 kts 219°
2026-05-04 12:35 16.32770 -16.25077 37957 ft 401 kts 219°
2026-05-04 12:36 16.28224 -16.28444 37955 ft 401 kts 219°
2026-05-04 12:36 16.23682 -16.31821 37958 ft 401 kts 219°
2026-05-04 12:37 16.19135 -16.35191 37976 ft 401 kts 220°
2026-05-04 12:37 16.16858 -16.36875 37796 ft 401 kts 219°
2026-05-04 12:37 16.14583 -16.38556 37529 ft 401 kts 219°
2026-05-04 12:37 16.12307 -16.40239 37281 ft 402 kts 219°
2026-05-04 12:38 16.10025 -16.41929 37024 ft 404 kts 219°
2026-05-04 12:38 16.07732 -16.43630 36774 ft 405 kts 219°
2026-05-04 12:38 16.05434 -16.45334 36525 ft 407 kts 219°
2026-05-04 12:38 16.03198 -16.47084 36261 ft 408 kts 222°
2026-05-04 12:39 16.00995 -16.48958 36019 ft 410 kts 223°
2026-05-04 12:39 15.98831 -16.50894 35778 ft 411 kts 224°
2026-05-04 12:39 15.96674 -16.52862 35537 ft 413 kts 224°
2026-05-04 12:39 15.94511 -16.54835 35298 ft 415 kts 224°
2026-05-04 12:40 15.92324 -16.56806 35061 ft 417 kts 224°
2026-05-04 12:40 15.90114 -16.58772 34791 ft 419 kts 223°
2026-05-04 12:40 15.87874 -16.60746 33832 ft 426 kts 223°
2026-05-04 12:40 15.85592 -16.62742 32768 ft 432 kts 222°
2026-05-04 12:41 15.83276 -16.64762 31672 ft 438 kts 221°
2026-05-04 12:41 15.80924 -16.66815 30569 ft 445 kts 221°
2026-05-04 12:41 15.78545 -16.68898 29386 ft 450 kts 220°
2026-05-04 12:41 15.76142 -16.71005 28144 ft 453 kts 221°
2026-05-04 12:42 15.73738 -16.73115 26952 ft 453 kts 221°
2026-05-04 12:42 15.71331 -16.75231 25800 ft 453 kts 221°
2026-05-04 12:42 15.68923 -16.77348 24693 ft 453 kts 221°
2026-05-04 12:42 15.66525 -16.79452 23626 ft 451 kts 221°
2026-05-04 12:43 15.64126 -16.81555 22397 ft 451 kts 220°
2026-05-04 12:43 15.61731 -16.83653 21191 ft 451 kts 220°
2026-05-04 12:43 15.59336 -16.85750 20051 ft 451 kts 220°
2026-05-04 12:43 15.56971 -16.87820 18958 ft 451 kts 219°
2026-05-04 12:44 15.54576 -16.89919 17837 ft 451 kts 219°
2026-05-04 12:44 15.52184 -16.92018 16729 ft 450 kts 219°
2026-05-04 12:44 15.49828 -16.94089 15851 ft 439 kts 218°
2026-05-04 12:44 15.47514 -16.96120 14869 ft 430 kts 218°
2026-05-04 12:45 15.45256 -16.98098 14095 ft 424 kts 218°
2026-05-04 12:45 15.42994 -17.00073 13261 ft 425 kts 217°
2026-05-04 12:45 15.40737 -17.02040 12520 ft 423 kts 217°
2026-05-04 12:45 15.38493 -17.03996 11756 ft 420 kts 218°
2026-05-04 12:46 15.36224 -17.05873 11157 ft 410 kts 211°
2026-05-04 12:46 15.33756 -17.07154 11028 ft 385 kts 197°
2026-05-04 12:46 15.31235 -17.07781 10913 ft 362 kts 184°
2026-05-04 12:46 15.28789 -17.07859 10795 ft 343 kts 176°
2026-05-04 12:47 15.26456 -17.07840 10678 ft 328 kts 176°
2026-05-04 12:47 15.24224 -17.07819 10562 ft 315 kts 176°
2026-05-04 12:47 15.22075 -17.07798 10446 ft 303 kts 176°
2026-05-04 12:47 15.19998 -17.07778 10229 ft 295 kts 176°
2026-05-04 12:48 15.17964 -17.07757 10156 ft 292 kts 176°
2026-05-04 12:48 15.15935 -17.07734 10058 ft 291 kts 176°
2026-05-04 12:48 15.13905 -17.07713 9882 ft 292 kts 175°
2026-05-04 12:48 15.11861 -17.07691 9392 ft 294 kts 176°
2026-05-04 12:49 15.09825 -17.07671 8975 ft 293 kts 176°
2026-05-04 12:49 15.07782 -17.07652 8521 ft 294 kts 176°
2026-05-04 12:49 15.05740 -17.07634 8092 ft 293 kts 176°
2026-05-04 12:49 15.03706 -17.07616 7668 ft 292 kts 176°
2026-05-04 12:50 15.01678 -17.07597 7239 ft 291 kts 176°
2026-05-04 12:50 14.99652 -17.07577 6817 ft 291 kts 176°
2026-05-04 12:50 14.97656 -17.07557 6400 ft 291 kts 177°
2026-05-04 12:50 14.95662 -17.07542 5961 ft 281 kts 177°
2026-05-04 12:51 14.93754 -17.07525 5612 ft 268 kts 176°
2026-05-04 12:51 14.91899 -17.07495 5176 ft 268 kts 176°
2026-05-04 12:51 14.90025 -17.07450 4780 ft 269 kts 176°
2026-05-04 12:51 14.88160 -17.07420 4402 ft 267 kts 178°
2026-05-04 12:52 14.86316 -17.07426 4034 ft 264 kts 179°
2026-05-04 12:52 14.84512 -17.07443 3682 ft 254 kts 180°
2026-05-04 12:52 14.82781 -17.07457 3274 ft 244 kts 180°
2026-05-04 12:52 14.81130 -17.07452 2945 ft 231 kts 180°
2026-05-04 12:53 14.79549 -17.07434 2561 ft 225 kts 180°
2026-05-04 12:53 14.78012 -17.07416 2266 ft 218 kts 180°
2026-05-04 12:53 14.76528 -17.07403 2066 ft 208 kts 180°
2026-05-04 12:53 14.75102 -17.07381 1769 ft 199 kts 180°
2026-05-04 12:54 14.73773 -17.07336 1478 ft 187 kts 179°
2026-05-04 12:54 14.72525 -17.07321 1225 ft 173 kts 181°
2026-05-04 12:54 14.71386 -17.07337 1033 ft 151 kts 179°
2026-05-04 12:54 14.70397 -17.07307 785 ft 137 kts 181°
2026-05-04 12:55 14.69482 -17.07300 523 ft 128 kts 179°
2026-05-04 12:55 14.68600 -17.07291 334 ft 127 kts 180°
2026-05-04 12:55 14.67821 -17.07286 291 ft 92 kts 180°
2026-05-04 12:55 14.67333 -17.07282 295 ft 56 kts 179°
2026-05-04 12:56 14.67117 -17.07272 294 ft 17 kts 155°
2026-05-04 12:56 14.67076 -17.07173 293 ft 13 kts 90°
2026-05-04 12:56 14.67082 -17.07080 293 ft 14 kts 90°
2026-05-04 12:56 14.67084 -17.06996 296 ft 8 kts 69°
2026-05-04 12:57 14.67131 -17.06971 293 ft 9 kts 354°
2026-05-04 12:57 14.67193 -17.06976 293 ft 9 kts 356°
2026-05-04 12:57 14.67245 -17.06977 298 ft 2 kts 11°
2026-05-04 12:57 14.67244 -17.06971 297 ft 0 kts 84°
2026-05-04 12:58 14.67237 -17.06955 293 ft 4 kts 112°
2026-05-04 12:58 14.67215 -17.06921 295 ft 7 kts 124°
2026-05-04 12:58 14.67186 -17.06875 294 ft 8 kts 123°
2026-05-04 12:58 14.67178 -17.06862 293 ft 0 kts 122°